Temperature
19 20 21 21 21 20 20 19 19 20 20 21 20 20 21 22 22 23 23 23 23 23 23 23 22 22 22 21 21 20 20 20 20 20 20 20 20 19 19 19 18 18 18 18
19 20 20 21 21 21 21 20 20 20 20 20 21 21 21 22 22 22 22 22 23 23 23 23 23 22 22 22 21 20 20 20 20 20 20 20 19 19 19 19 18 18 18 18
18 19 20 20 20 21 21 20 20 20 21 20 20 20 21 22 22 22 22 23 23 23 23 23 23 22 22 22 21 21 20 20 20 20 20 20 19 19 19 19 18 18 18 18
15 18 20 20 20 20 20 20 19 20 19 19 20 21 22 23 22 23 23 23 23 23 23 23 23 22 22 22 21 21 21 20 20 20 20 20 19 19 19 19 18 18 18 18
14 17 18 19 20 20 20 20 19 19 19 19 20 20 21 22 23 23 23 24 24 23 23 23 23 22 22 22 21 21 21 21 21 20 20 20 19 19 19 19 19 18 18 18
14 17 18 19 20 20 20 20 19 19 18 19 19 19 20 22 22 23 23 23 23 23 23 23 23 22 22 21 21 21 21 21 21 20 20 20 20 19 19 19 19 18 18 18
15 16 17 18 19 20 20 20 19 19 19 19 19 19 21 21 22 22 23 23 23 23 23 22 22 22 21 21 21 21 21 21 20 20 20 20 20 19 19 19 18 18 18 17
14 16 17 18 18 18 18 19 19 19 19 19 19 20 21 21 21 22 22 22 23 23 22 22 22 22 21 21 21 21 20 20 20 20 20 20 19 19 19 18 18 18 17 17
14 15 16 17 17 18 18 18 18 19 19 19 19 20 20 20 21 21 22 22 22 22 22 21 21 21 21 21 21 20 20 20 20 20 20 19 19 19 18 18 18 18 17 17
13 14 15 16 17 18 18 19 19 19 19 19 19 19 20 20 20 21 21 21 21 21 21 21 21 21 21 20 20 20 20 20 19 19 19 19 19 18 18 18 18 18 17 17
13 14 15 16 17 17 18 18 19 19 19 19 19 19 19 19 20 20 20 20 20 20 20 20 20 20 20 20 19 19 19 19 19 19 19 19 18 18 18 18 18 17 17 17
14 14 14 16 17 17 18 18 18 18 18 18 19 18 19 19 19 19 19 20 20 20 20 20 20 20 20 19 19 19 19 19 19 19 18 18 18 18 18 17 17 17 17 17
15 16 16 16 17 17 18 18 18 18 18 18 18 18 18 18 18 19 19 19 19 19 19 19 19 19 19 19 19 18 18 19 18 18 18 18 18 17 17 17 17 16 16 16
16 16 15 16 16 17 17 17 17 18 18 18 18 18 18 18 18 18 18 18 18 18 18 18 18 19 19 19 18 18 18 18 18 18 18 17 17 17 17 17 16 16 16 16
16 16 16 16 16 16 17 17 17 17 17 17 17 17 17 17 17 17 17 18 18 18 18 18 18 18 18 18 18 18 17 17 17 17 17 17 16 16 16 16 16 15 15 15
15 16 16 16 16 16 16 17 17 16 16 17 17 16 17 17 17 17 17 17 17 18 18 18 17 17 17 17 17 17 17 17 16 16 16 16 16 16 16 15 15 15 15 14
15 15 15 15 16 16 16 16 16 16 16 16 16 16 16 16 17 17 17 17 17 17 17 17 17 17 17 17 17 17 16 16 16 16 16 16 15 15 15 15 15 15 14 14
15 15 15 16 16 16 15 16 16 16 16 16 16 16 16 16 16 16 16 16 16 17 17 17 17 17 17 17 17 16 16 16 16 16 16 15 15 15 15 14 14 14 14 14
15 15 15 15 15 15 15 15 16 16 16 16 16 16 16 16 16 16 16 16 16 16 16 16 16 16 16 16 16 16 16 15 15 15 15 15 15 14 14 14 14 14 14 14
15 15 15 15 15 15 15 15 15 15 15 15 15 15 15 15 15 15 15 15 15 15 15 15 15 15 15 15 15 15 15 15 15 14 14 14 14 14 14 14 13 13 13 13
15 15 15 15 15 15 15 15 15 15 15 15 15 15 15 15 15 15 15 15 15 15 15 15 15 15 15 15 15 15 14 14 14 14 14 14 14 14 13 13 13 13 13 13
14 14 14 14 14 14 14 14 15 15 14 14 14 14 14 15 14 14 14 14 14 14 14 14 14 14 14 14 14 14 14 14 14 14 14 14 13 13 13 13 13 12 12 12
14 14 14 14 14 14 14 14 14 14 14 14 14 14 14 14 14 14 14 14 14 14 14 14 14 14 14 13 13 13 13 13 13 13 13 13 13 13 12 12 12 12 12 11
13 13 13 13 13 13 14 14 14 14 14 14 14 14 14 14 14 14 14 14 13 13 13 13 13 13 13 13 13 13 13 13 13 12 12 12 12 12 12 12 11 11 11 11
13 13 13 13 13 13 13 13 13 13 13 13 13 13 13 13 13 13 13 13 13 13 13 13 13 12 12 12 12 12 12 12 12 12 12 12 11 11 11 11 11 11 10 10
13 13 13 13 13 13 13 13 13 13 13 13 13 13 13 13 13 13 13 12 12 12 12 12 12 12 12 12 12 12 11 11 11 11 11 11 11 11 11 10 10 10 10 10
12 12 12 12 12 13 13 13 13 12 12 13 13 13 13 12 12 12 12 12 12 11 12 11 11 11 11 11 11 11 11 11 11 11 10 10 10 10 10 10 9 9 9 9
Wind_Speed
5 4 4 4 6 6 6 9 9 9 9 11 8 7 7 5 4 4 6 7 8 9 9 9 9 9 9 9 8 9 8 8 8 7 6 5 5 5 4 4 4 4 3 3
1 2 3 4 6 7 7 7 7 6 10 8 5 3 4 5 5 6 7 8 8 8 9 9 10 10 10 9 9 8 9 9 8 7 6 6 6 5 5 4 4 4 4 4
3 1 1 5 7 8 6 6 7 10 10 3 3 6 8 8 7 7 7 8 9 9 9 10 10 10 11 10 9 9 8 8 8 7 7 7 6 5 6 6 5 4 4 4
3 3 6 9 4 5 6 5 6 6 6 5 6 5 4 5 8 8 8 8 9 8 8 8 8 9 9 9 9 9 9 9 8 8 8 7 6 7 6 5 4 4 4 4
4 4 5 7 4 4 4 6 5 5 5 3 1 2 3 3 4 6 6 6 7 7 7 8 9 9 9 9 9 9 9 9 9 9 8 7 7 7 6 5 5 5 4 5
4 5 7 7 4 1 3 5 4 4 4 2 3 1 5 3 3 3 3 3 4 5 5 7 8 9 9 9 9 10 10 9 9 9 9 9 8 7 5 5 5 5 5 5
4 4 7 6 5 1 5 7 2 2 3 3 4 4 3 3 2 1 2 2 4 5 5 6 7 8 9 9 10 10 8 8 8 8 8 8 7 5 5 5 5 5 5 5
5 4 7 3 1 4 6 3 1 1 2 2 2 1 2 2 2 1 1 2 4 5 5 4 6 8 8 8 8 7 7 7 7 7 7 6 6 5 5 6 6 5 4 4
7 7 5 3 3 3 3 2 1 2 3 2 1 0 2 2 2 2 2 2 3 5 5 4 4 7 7 7 5 6 6 6 6 6 6 5 6 6 5 5 5 5 4 5
2 5 5 5 3 2 1 1 1 1 2 2 2 1 1 2 2 3 2 2 3 4 4 3 4 5 6 4 4 5 6 6 6 6 5 4 4 5 5 6 6 5 5 5
3 5 4 4 3 2 2 2 2 1 1 2 3 2 1 1 1 1 1 2 3 4 3 3 3 4 3 3 5 6 6 6 6 6 6 5 4 4 6 6 7 7 6 6
6 7 4 5 4 2 1 1 1 2 2 1 2 2 1 1 1 1 2 2 3 2 2 2 2 2 2 3 5 6 5 5 5 4 4 5 4 3 3 5 6 8 8 7
6 5 5 5 4 3 1 1 1 2 2 1 1 2 2 1 1 1 2 2 2 2 2 2 2 1 1 3 5 6 5 5 4 5 5 5 5 5 4 3 3 5 7 8
4 2 2 3 3 2 1 1 1 1 1 2 2 2 2 2 1 1 1 1 1 1 1 1 1 1 2 3 4 5 5 5 4 4 5 5 5 5 5 4 3 3 4 6
3 3 4 3 1 1 2 2 2 1 1 1 1 2 2 2 1 2 2 1 1 2 1 1 0 1 0 2 4 4 3 3 3 3 3 4 4 4 4 4 4 3 2 2
2 1 2 2 2 2 2 3 3 2 1 1 1 1 2 2 2 1 1 0 1 1 1 0 1 1 1 2 3 2 3 4 4 3 3 3 3 3 4 4 4 4 4 4
3 3 3 3 4 3 3 3 4 3 2 2 2 2 2 1 0 1 1 1 1 2 2 2 3 2 1 2 3 2 3 3 4 3 3 3 4 4 4 4 4 4 5 5
6 6 6 6 6 5 3 3 4 4 3 2 1 2 2 2 2 2 1 0 1 2 2 1 1 1 1 2 2 2 2 3 3 4 4 4 4 4 4 4 5 5 4 4
6 6 5 5 5 6 5 4 4 4 3 3 2 2 1 1 2 2 1 1 0 1 3 2 1 1 1 2 2 2 2 3 3 3 3 4 4 3 3 3 4 4 5 4
4 4 4 4 4 5 5 5 4 3 3 3 2 2 1 1 1 1 1 1 2 3 2 2 1 1 2 2 2 2 2 3 3 2 3 3 3 3 3 4 4 4 5 5
4 4 4 4 3 4 5 5 5 4 2 2 3 2 2 2 1 2 2 1 3 2 1 1 1 1 2 2 1 2 2 3 3 3 3 3 3 3 3 4 4 4 4 4
3 3 4 4 4 4 3 3 4 4 3 2 2 2 2 1 1 1 1 2 3 2 1 1 1 1 2 2 1 2 2 2 2 2 2 3 3 3 3 4 3 3 3 3
2 3 3 4 5 4 2 2 3 3 3 3 3 3 3 3 2 2 2 2 1 1 1 1 2 1 2 1 1 2 2 2 2 2 3 3 3 3 3 3 3 3 3 2
1 2 2 3 3 3 2 2 3 2 3 2 2 3 3 2 1 2 2 1 1 1 1 1 1 1 2 1 1 1 1 2 2 2 2 3 3 3 3 3 2 2 2 2
2 2 3 3 3 3 3 2 2 2 2 1 1 1 1 2 3 2 1 1 1 0 1 1 1 1 2 1 1 1 1 1 1 2 2 2 2 2 2 2 2 2 2 2
2 3 3 3 3 3 3 2 2 1 2 1 0 0 0 1 1 1 1 1 1 0 0 1 1 1 1 1 2 1 1 1 1 1 1 1 1 1 1 1 1 1 1 1
1 2 1 1 1 2 2 3 3 2 2 2 1 1 0 1 2 2 1 1 0 0 0 1 1 1 1 1 1 1 1 1 1 1 1 0 0 0 1 1 1 1 1 1
Wind_Direction
212 213 188 211 211 198 195 189 193 227 235 255 253 240 239 234 215 189 184 185 185 188 190 188 185 185 184 186 184 182 181 188 198 199 195 195 196 195 192 190 200 201 199 209
227 211 196 235 229 216 222 207 216 232 253 255 256 230 231 227 205 200 197 194 192 191 189 191 190 188 186 186 184 178 184 195 196 189 190 198 202 196 191 196 199 193 202 209
215 260 76 253 230 212 215 212 198 221 241 258 253 233 223 218 209 208 202 196 194 196 197 196 195 188 187 186 177 177 187 194 193 189 194 201 201 194 201 204 198 199 210 212
143 112 217 241 240 207 209 238 227 235 249 241 245 257 250 224 207 208 200 197 199 200 202 197 187 182 178 174 175 181 190 197 194 189 197 197 193 202 209 202 199 207 216 218
140 181 259 282 249 189 193 259 240 233 256 271 296 15 314 262 210 207 209 207 204 200 197 190 185 177 168 174 180 187 196 201 199 194 194 191 198 208 206 196 201 204 208 214
141 163 219 243 267 247 138 262 259 219 233 218 108 164 268 292 283 249 224 205 195 181 170 179 186 171 167 179 186 199 204 204 198 191 193 195 201 206 200 194 203 203 211 217
165 199 250 258 284 114 175 237 259 232 227 188 188 217 266 306 297 239 199 186 166 158 170 185 174 165 176 186 200 207 202 195 192 192 197 198 196 195 188 192 199 208 218 223
157 184 244 278 115 179 219 256 223 241 253 190 206 281 353 3 5 28 91 126 147 150 162 164 163 169 179 196 204 194 184 185 193 195 199 196 186 190 188 188 198 209 218 236
189 212 244 259 223 245 206 211 236 231 272 198 150 36 7 17 23 29 68 109 132 147 149 149 160 168 180 201 186 170 175 190 195 192 194 188 184 188 190 191 202 212 217 234
238 266 271 278 277 272 231 202 262 243 229 180 157 154 53 29 35 41 48 92 118 129 145 165 173 177 193 187 159 162 181 195 190 186 190 186 189 191 199 202 205 209 217 230
251 272 303 305 290 290 336 15 27 52 130 158 141 154 138 98 75 86 84 92 102 126 154 179 178 190 199 172 160 171 187 191 188 187 186 193 200 203 209 216 213 210 217 220
224 233 221 249 273 280 308 349 93 90 41 16 141 145 112 102 90 95 92 91 94 115 159 182 171 193 206 180 173 175 188 194 192 190 189 193 199 217 229 226 225 220 220 217
233 237 240 250 273 265 231 248 192 131 142 160 135 137 133 141 138 113 99 96 116 155 176 173 143 152 218 192 177 179 193 200 196 192 195 199 200 204 227 256 239 228 227 228
229 225 267 258 246 248 213 152 94 100 108 136 142 133 131 118 113 115 159 196 171 152 150 144 137 222 234 180 175 183 193 198 195 200 199 202 206 211 213 220 240 261 250 237
254 227 216 225 243 247 144 125 115 108 96 74 114 134 143 142 185 243 266 265 115 99 69 76 100 290 257 149 162 174 179 190 193 195 199 205 208 214 218 219 231 250 272 273
243 211 183 187 212 200 166 159 158 171 163 142 178 188 178 178 185 243 275 183 142 189 238 228 260 275 209 143 159 167 173 183 187 186 188 201 206 212 223 224 230 239 248 253
210 230 224 194 191 186 187 181 171 172 179 179 197 196 164 150 139 286 279 219 198 228 235 228 241 245 187 149 165 174 180 192 188 184 194 205 211 217 225 228 232 238 246 238
220 226 226 205 189 180 185 182 171 167 174 191 170 144 146 166 212 246 248 340 36 2 328 286 257 240 200 178 169 176 190 197 200 203 206 210 220 223 218 229 240 247 257 249
227 229 225 209 199 186 188 191 187 177 171 164 152 148 175 208 238 241 187 106 100 297 295 276 241 218 212 200 176 179 187 196 203 206 208 208 216 229 230 235 246 252 254 256
216 213 207 206 193 183 187 187 177 172 174 161 151 139 215 245 213 177 134 179 248 252 258 245 217 230 226 211 185 183 187 195 202 208 214 219 225 236 241 247 251 255 257 256
198 195 194 195 189 184 184 177 165 170 175 166 170 192 220 230 198 166 143 278 294 287 274 251 229 235 231 211 196 198 201 206 210 211 214 221 230 239 247 251 254 257 258 259
214 200 195 190 181 182 187 171 164 169 173 181 198 199 185 194 195 192 225 237 259 265 272 281 282 261 245 236 224 223 224 223 226 229 226 226 229 238 247 251 252 255 258 260
214 204 193 186 181 176 156 156 170 176 183 198 203 195 195 209 207 199 263 269 251 243 265 270 267 282 291 268 237 236 235 237 238 243 244 243 246 248 248 252 255 259 262 270
190 177 175 165 143 138 163 198 188 186 192 210 211 206 197 196 234 241 230 238 241 248 273 271 265 299 317 303 257 248 241 240 243 246 250 250 246 246 249 251 255 262 266 276
176 158 149 150 157 183 204 210 189 180 175 190 226 223 207 197 204 231 229 211 221 173 348 350 11 1 348 328 293 267 256 253 261 260 249 249 255 257 255 253 256 266 273 275
189 183 189 195 198 197 192 179 180 190 172 166 301 329 217 159 151 154 133 112 109 120 31 356 359 1 342 317 306 307 301 304 305 282 265 251 243 238 244 255 259 261 271 285
180 174 168 169 191 187 185 180 183 201 198 180 192 259 210 128 123 123 115 111 124 78 11 352 335 324 324 333 343 343 340 331 330 330 337 329 251 228 222 211 251 291 327 340
Height
1487 1484 1485 1485 1486 1490 1493 1498 1504 1497 1492 1480 1476 1474 1474 1474 1475 1476 1478 1480 1483 1486 1489 1493 1496 1499 1503 1507 1511 1514 1517 1519 1521 1524 1526 1528 1529 1530 1531 1532 1533 1534 1535 1535
1487 1483 1483 1485 1483 1484 1485 1487 1489 1487 1483 1472 1471 1472 1472 1472 1473 1474 1476 1478 1481 1484 1487 1490 1493 1496 1500 1504 1507 1511 1513 1515 1518 1520 1523 1525 1526 1528 1528 1529 1530 1531 1532 1533
1495 1487 1484 1490 1480 1479 1479 1477 1480 1483 1475 1470 1470 1469 1469 1470 1471 1472 1474 1476 1478 1481 1484 1487 1490 1494 1497 1500 1504 1507 1510 1513 1515 1517 1519 1521 1523 1524 1525 1526 1527 1528 1529 1529
1498 1493 1500 1482 1470 1470 1472 1472 1471 1470 1468 1467 1466 1466 1467 1468 1469 1470 1472 1474 1476 1478 1481 1484 1488 1491 1495 1498 1501 1503 1506 1509 1512 1514 1516 1518 1519 1521 1522 1523 1524 1525 1526 1527
1500 1499 1490 1476 1468 1468 1471 1471 1467 1467 1465 1465 1465 1465 1466 1466 1467 1468 1470 1471 1473 1476 1478 1481 1485 1488 1492 1494 1497 1500 1502 1505 1508 1510 1512 1514 1515 1517 1519 1519 1520 1521 1523 1523
1496 1496 1495 1475 1463 1462 1466 1472 1463 1463 1463 1463 1464 1470 1466 1464 1465 1466 1468 1469 1472 1474 1476 1478 1481 1485 1488 1490 1493 1496 1498 1501 1504 1506 1508 1510 1511 1513 1515 1516 1517 1518 1519 1520
1491 1490 1481 1465 1461 1462 1476 1471 1461 1461 1461 1461 1462 1464 1464 1463 1463 1464 1465 1467 1469 1472 1473 1475 1478 1481 1484 1487 1489 1492 1495 1497 1500 1502 1504 1506 1508 1510 1511 1512 1513 1514 1515 1515
1488 1488 1481 1461 1461 1465 1464 1459 1459 1460 1459 1460 1460 1461 1461 1461 1461 1462 1463 1465 1467 1469 1471 1473 1475 1478 1480 1483 1485 1489 1491 1493 1496 1499 1501 1503 1504 1505 1507 1508 1509 1509 1510 1511
1475 1473 1462 1459 1459 1458 1458 1458 1458 1458 1459 1459 1459 1460 1460 1460 1460 1461 1462 1463 1465 1467 1469 1472 1474 1475 1477 1480 1483 1486 1488 1490 1493 1495 1497 1499 1500 1501 1503 1504 1505 1505 1506 1506
1468 1462 1459 1457 1457 1457 1456 1457 1457 1457 1457 1458 1459 1459 1460 1460 1459 1460 1462 1463 1464 1466 1468 1470 1472 1473 1475 1478 1480 1482 1484 1486 1489 1491 1493 1495 1496 1497 1499 1499 1500 1500 1501 1501
1464 1460 1457 1455 1455 1455 1454 1455 1455 1455 1457 1458 1459 1459 1459 1459 1460 1461 1462 1462 1463 1465 1467 1468 1470 1471 1473 1475 1478 1479 1481 1483 1486 1487 1489 1491 1492 1492 1494 1495 1496 1496 1496 1497
1460 1456 1456 1454 1453 1454 1453 1454 1454 1455 1455 1457 1458 1458 1458 1459 1459 1459 1460 1461 1462 1464 1465 1467 1468 1469 1471 1473 1475 1476 1478 1480 1481 1483 1484 1486 1487 1488 1488 1491 1492 1492 1492 1493
1451 1452 1452 1450 1451 1452 1453 1453 1453 1454 1455 1456 1457 1458 1458 1458 1459 1459 1460 1461 1462 1463 1464 1465 1465 1466 1469 1470 1472 1473 1474 1476 1478 1479 1481 1482 1483 1483 1484 1485 1487 1487 1488 1489
1449 1449 1449 1448 1449 1450 1451 1452 1453 1454 1455 1455 1456 1457 1457 1457 1458 1459 1459 1460 1461 1461 1462 1462 1463 1464 1466 1467 1469 1469 1471 1473 1475 1476 1478 1478 1479 1479 1480 1481 1481 1482 1483 1484
1447 1447 1447 1447 1448 1449 1450 1451 1452 1453 1453 1454 1455 1455 1456 1456 1457 1458 1459 1459 1460 1460 1460 1461 1461 1462 1463 1464 1466 1467 1468 1469 1471 1473 1474 1475 1475 1476 1476 1476 1477 1477 1478 1479
1445 1445 1445 1445 1446 1447 1448 1450 1451 1451 1452 1452 1453 1454 1455 1456 1456 1457 1458 1458 1458 1458 1458 1458 1459 1460 1461 1462 1463 1464 1465 1466 1468 1469 1470 1471 1471 1472 1472 1472 1473 1473 1474 1474
1442 1442 1442 1442 1444 1445 1446 1448 1449 1450 1451 1451 1452 1453 1454 1454 1455 1455 1456 1456 1457 1457 1457 1458 1458 1459 1460 1461 1461 1462 1463 1464 1466 1466 1466 1467 1468 1468 1468 1468 1469 1469 1469 1469
1439 1440 1440 1441 1441 1443 1445 1446 1448 1449 1449 1450 1451 1451 1451 1452 1453 1453 1454 1455 1455 1456 1456 1456 1457 1457 1458 1459 1460 1460 1461 1461 1462 1463 1463 1464 1464 1464 1464 1464 1465 1464 1464 1464
1435 1436 1438 1439 1440 1441 1442 1444 1446 1447 1448 1449 1450 1450 1450 1451 1452 1452 1453 1453 1453 1453 1454 1455 1455 1455 1456 1457 1457 1458 1458 1458 1458 1459 1459 1459 1460 1460 1460 1460 1460 1460 1459 1458
1432 1433 1435 1436 1438 1439 1440 1442 1444 1445 1447 1448 1449 1449 1450 1450 1451 1451 1451 1451 1452 1452 1453 1452 1453 1453 1454 1455 1455 1455 1455 1455 1455 1456 1456 1456 1456 1456 1456 1456 1456 1455 1454 1453
1430 1431 1432 1434 1435 1437 1439 1440 1442 1443 1445 1446 1447 1448 1448 1449 1449 1449 1449 1450 1451 1451 1451 1451 1451 1451 1452 1452 1452 1452 1452 1452 1452 1452 1452 1452 1452 1453 1452 1452 1451 1450 1449 1448
1428 1429 1431 1432 1433 1435 1437 1439 1440 1442 1443 1444 1445 1446 1447 1447 1448 1448 1448 1449 1449 1449 1449 1449 1449 1449 1449 1449 1449 1449 1448 1448 1448 1448 1448 1448 1449 1448 1448 1448 1447 1446 1445 1444
1426 1427 1428 1430 1431 1433 1435 1437 1438 1440 1441 1442 1443 1444 1444 1445 1446 1446 1446 1447 1447 1447 1447 1447 1447 1447 1446 1446 1445 1445 1444 1444 1444 1444 1444 1444 1444 1444 1444 1444 1443 1442 1441 1439
1424 1425 1426 1428 1429 1431 1433 1435 1437 1438 1439 1440 1441 1441 1442 1442 1443 1444 1444 1444 1445 1445 1445 1445 1444 1444 1443 1442 1442 1442 1441 1441 1441 1441 1440 1440 1440 1440 1440 1439 1438 1438 1436 1435
1422 1423 1425 1426 1427 1429 1431 1433 1434 1435 1436 1437 1438 1439 1439 1440 1440 1440 1441 1441 1442 1442 1442 1442 1441 1441 1441 1440 1440 1439 1438 1438 1437 1437 1437 1436 1436 1436 1435 1435 1434 1433 1432 1431
1420 1421 1423 1424 1426 1427 1429 1431 1432 1433 1434 1434 1435 1436 1437 1437 1438 1439 1439 1438 1439 1439 1439 1439 1439 1439 1438 1438 1438 1437 1436 1435 1434 1433 1433 1433 1433 1432 1432 1431 1430 1429 1429 1428
1418 1420 1421 1423 1425 1426 1427 1429 1430 1431 1432 1432 1433 1434 1435 1435 1435 1436 1436 1436 1437 1436 1436 1437 1437 1437 1436 1436 1435 1435 1434 1433 1432 1431 1430 1430 1429 1429 1428 1428 1427 1426 1426 1425